Location: Finkenwalde
(53.3770°N, 14.6418°E)
Time: 04:26:46
(UTC+00:00)

Meteor 2-12 Rocket - Pass Details

Date: 05 February 2023
Orbit: 935 x 958 km, 82.5° (Epoch: 24 March)

Event Time Altitude Azimuth Distance (km) Brightness Sun altitude
Rises 17:04:20 0° 349° (NNW) 3,625 7.5 -11.0°
Reaches altitude 10° 17:06:51 10° 350° (N) 2,673 6.8 -11.4°
Maximum altitude 17:12:58 78° 78° (ENE) 966 4.4 -12.3°
Drops below altitude 10° 17:19:01 10° 165° (SSE) 2,644 6.7 -13.2°
Sets 17:21:29 0° 166° (SSE) 3,582 7.4 -13.6°
